Location: Giesen
(52.1976°N, 9.8971°E)
Time: 19:35:21
(UTC+00:00)

Daily predictions for brighter satellites

Satellite Brightness Start Highest point End
(mag) Time Altitude Azimuth Time Altitude Azimuth Time Altitude Azimuth
Cosmos 2173 Rocket 4.1 15:51:32 10° S 15:57:43 84° W 16:03:53 10° N
Cosmos 921 Rocket 3.1 15:55:16 10° SSW 15:59:38 88° WNW 16:04:08 10° NNE
Cosmos 2278 Rocket 3.4 15:56:44 10° SSE 16:01:07 24° ESE 16:05:30 10° NE
Cosmos 1441 Rocket 3.4 16:02:54 10° NNW 16:06:14 64° W 16:09:34 10° S
Cosmos 1908 Rocket 3.7 16:03:46 10° S 16:08:12 87° W 16:12:41 10° N
MOS 1 Rocket 4.1 16:04:39 10° ESE 16:08:16 26° ENE 16:12:02 10° N
Cosmos 1975 Rocket 3.2 16:05:10 10° N 16:09:26 53° ENE 16:13:43 10° SSE
USA 215 3.4 16:04:35 10° ESE 16:11:09 82° SSW 16:17:44 10° WNW
SL-08 R/B 4.4 16:05:10 10° S 16:11:11 69° E 16:17:14 10° NNE
ARIANE 5 R/B 2.6 16:07:09 10° SE 16:11:57 50° ENE 16:16:47 10° N
ATLAS 5 CENTAUR R/B 2.8 16:08:13 10° NW 16:12:22 49° SW 16:17:27 10° SSE
Cosmos 2263 Rocket 4.3 16:13:26 10° WNW 16:16:43 16° NNW 16:20:02 10° NNE
Cosmos 2344 4.0 16:10:19 10° NW 16:17:28 48° NNE 16:26:21 10° E
Cosmos 1844 Rocket 4.1 16:12:58 10° WSW 16:18:00 33° NW 16:23:04 10° NNE
Cosmos 1802 Rocket 4.2 16:12:34 10° SSW 16:19:00 82° W 16:25:28 10° N
ARIANE 6 FM1 Upper Stage 4.1 16:16:57 10° WNW 16:20:20 26° NNW 16:23:42 10° NE
Cosmos 1862 4.5 16:17:53 10° NNE 16:20:29 18° ENE 16:23:05 10° ESE
Iridium 4 Rocket 3.7 16:15:38 10° SSW 16:20:33 67° W 16:25:06 10° N
SAR-Lupe-4 3.7 16:17:27 10° SSE 16:20:56 53° ENE 16:24:27 10° N
ISS -2.5 16:25:35 10° SSW 16:28:31 29° SSE 16:30:57 13° E
USA 281 4.4 16:24:36 10° E 16:29:21 23° NNE 16:34:14 10° NNW
Cosmos 1833 Rocket 3.9 16:23:59 10° NW 16:29:22 47° WSW 16:34:44 10° S
COSMOS 2406 3.8 16:24:17 10° NNW 16:29:32 36° NE 16:34:45 10° ESE
CZ-2D R/B 2.8 16:27:08 10° SSE 16:30:12 52° ENE 16:33:17 10° N
Cosmos 407 Rocket 3.8 16:26:41 10° S 16:31:34 44° ESE 16:36:26 10° NE
Cosmos 1484 Rocket 4.1 16:29:08 10° S 16:32:28 40° W 16:35:51 10° NNW
Cosmos 2016 Rocket 4.3 16:26:36 10° SSW 16:32:55 78° W 16:39:21 10° N
Cosmos 1812 3.3 16:31:10 10° SE 16:33:26 21° E 16:34:33 17° ENE
Tsikada Rocket 4.3 16:28:07 10° NNW 16:34:33 78° W 16:40:53 10° S
IRS-P3 4.2 16:30:13 10° SE 16:35:25 58° ENE 16:40:39 10° N
TIMED 4.4 16:31:27 10° SSW 16:35:41 69° ESE 16:39:57 10° NNE
Cosmos 2084 Rocket 3.7 16:36:22 10° WSW 16:40:32 65° NW 16:44:07 14° NE
ERS-1 4.5 16:35:30 10° SSE 16:40:37 71° ENE 16:45:42 10° NNW
SMAP 3.2 16:37:55 10° SSE 16:42:35 82° WSW 16:47:17 10° NNW
Cosmos 540 Rocket 3.4 16:38:50 10° NNW 16:44:01 89° ENE 16:49:08 10° SSE
Cosmos 44 Rocket 3.9 16:40:01 10° S 16:44:25 37° ESE 16:47:38 17° ENE
SJ 16-02 2.6 16:43:28 10° SSE 16:46:44 21° E 16:47:54 19° ENE
SPOT 1/Viking Rocket 3.8 16:42:26 10° SE 16:47:20 45° ENE 16:52:16 10° N
Cosmos 1869 3.0 16:44:58 10° S 16:48:24 57° E 16:51:52 10° NNE
Cosmos 2297 Rocket 4.3 16:46:46 10° NNW 16:48:34 11° N 16:50:22 10° NNE
YAOGAN 1 3.3 16:45:26 10° SE 16:49:10 31° ENE 16:52:55 10° N
SL-16 R/B 3.0 16:45:31 10° NNE 16:51:44 65° WNW 16:57:54 10° SSW
Cosmos 1763 Rocket 3.8 16:47:13 10° NNW 16:52:26 70° WSW 16:57:33 10° SSE
Meteor 2-3 Rocket 4.4 16:48:06 10° N 16:53:10 31° ENE 16:58:10 10° SE
Landsat 7 3.8 16:50:05 10° SSE 16:54:44 85° WSW 16:59:26 10° NNW
Nadezhda 4 Rocket 4.1 16:51:32 10° N 16:57:41 51° ENE 17:03:43 10° SSE
RESURS DK-1 3.1 16:54:20 10° NW 16:58:15 52° WSW 17:02:08 10° SSE
Spot 4 Rocket 4.2 16:53:25 10° SE 16:58:16 47° ENE 17:03:10 10° N
Cosmos 1140 Rocket 3.8 16:55:28 10° SW 17:00:36 65° WNW 17:05:45 10° NNE
Aureole 3 Rocket 2.4 16:58:27 10° S 17:01:23 49° E 17:03:44 17° NNE
CZ-4C R/B 3.3 16:57:47 10° W 17:02:20 34° NNW 17:06:52 15° NE
Resurs 1-3 4.0 16:59:28 10° SE 17:03:27 38° ENE 17:07:27 10° N
UNK 4.0 17:00:14 10° NNE 17:04:51 72° WNW 17:09:26 10° SSW
CZ-4 R/B 4.3 17:02:39 10° SSE 17:06:34 63° ENE 17:10:31 10° N
SJ-6F 4.3 17:02:43 10° SSE 17:06:38 85° WSW 17:10:36 10° NNW
Cosmos 1400 Rocket 3.3 17:07:26 10° SSE 17:10:53 34° E 17:11:08 33° E
SJ-12 4.5 17:07:25 10° S 17:11:09 55° W 17:14:53 10° NNW
Cosmos 371 Rocket 4.1 17:07:09 10° SSE 17:11:16 29° ESE 17:12:04 28° E
Cosmos 1536 Rocket 3.5 17:06:57 10° N 17:11:22 61° ENE 17:15:43 10° SSE
SAR-Lupe-3 3.8 17:13:47 33° N 17:14:48 78° WNW 17:17:25 10° SSW
Helios 1A Rocket 4.3 17:16:48 18° SE 17:16:48 18° SE 17:17:58 10° SSE
Okean 2 Rocket 3.4 17:14:07 10° SSE 17:18:14 41° E 17:20:03 27° NE
Cosmos 489 Rocket 4.4 17:11:58 10° NNW 17:18:16 76° ENE 17:24:29 10° SSE
CARTOSAT-1 4.4 17:22:06 30° NE 17:22:06 30° NE 17:25:07 10° N
ATLAS CENTAUR R/B 3.3 17:24:26 10° NW 17:26:26 14° NNW 17:27:35 13° N
NOAA 6 4.1 17:21:28 10° SE 17:26:28 53° ENE 17:31:27 10° N
COSMO-SKYMED 1 2.7 17:26:49 42° E 17:26:56 42° E 17:30:51 10° S
SL-12 R/B(2) 4.4 17:19:37 10° SW 17:27:45 83° SE 17:35:47 18° NE
Geosat 4.1 17:25:22 28° ESE 17:27:49 53° NE 17:32:42 10° NNW
Resurs 01 Rocket 2.7 17:30:11 27° NNE 17:30:11 27° NNE 17:32:53 10° N
Cosmos 1943 Rocket 2.2 17:25:30 10° SSW 17:31:07 84° WNW 17:35:17 19° NNE
Timation 2 Rocket 4.2 17:25:40 10° SW 17:32:35 84° NW 17:38:22 15° NNE
Cosmos 841 Rocket 3.4 17:27:58 10° NNW 17:33:16 78° ENE 17:38:31 10° SSE
Cosmos 2058 3.3 17:29:23 10° NNW 17:33:18 60° W 17:37:13 10° S
Cosmos 2251 Rocket 3.4 17:29:46 10° SSW 17:35:03 79° ESE 17:38:36 22° NNE
SJ-7 4.0 17:32:58 10° SSE 17:36:39 87° E 17:40:23 10° NNW
Cosmos 2227 Rocket 4.3 17:35:28 10° NNW 17:37:13 11° N 17:38:42 10° NNE
BREEZE-M DEB (TANK) 2.9 17:35:33 10° WSW 17:38:19 55° SSE 17:39:49 38° ESE
Cosmos 2082 Rocket 2.8 17:32:54 10° NW 17:38:25 57° WSW 17:43:53 10° S
ATLAS 2AS CENTAUR R/B 2.8 17:32:56 10° NW 17:39:38 56° NNE 17:42:15 36° E
Cosmos 1346 Rocket 3.6 17:36:20 10° N 17:38:39 34° N 17:38:39 34° N
IRAS Rocket 4.3 17:38:11 10° SSE 17:43:45 82° WSW 17:49:18 10° NNW
Cosmos 2278 Rocket 2.3 17:38:59 10° SW 17:44:38 73° WNW 17:48:33 21° NNE
MOS 1 Rocket 4.2 17:41:54 10° S 17:46:05 46° W 17:50:30 10° NNW
Cosmos 1464 Rocket 4.0 17:44:38 10° S 17:50:56 87° W 17:57:12 10° N
CZ-2D R/B 4.1 17:47:42 10° S 17:51:47 55° W 17:55:57 10° NNW
Meteor 2-1 Rocket 4.3 17:46:49 10° S 17:52:38 59° E 17:57:32 15° NNE
Cosmos 2369 Rocket 4.2 17:49:40 10° SSE 17:50:09 12° SSE 17:50:09 12° SSE
Cosmos 1862 4.3 17:52:14 10° NNW 17:55:42 43° W 17:59:08 10° SSW
PSLV R/B 3.7 17:53:32 10° S 17:57:33 65° WSW 18:01:34 10° NNW
ARIANE 6 FM1 Upper Stage 4.5 17:57:28 10° NW 17:59:56 20° N 17:59:56 20° N
Cosmos 2151 Rocket 4.0 17:57:04 10° SSW 18:01:31 63° WNW 18:05:04 16° N
Cosmos 1190 Rocket 4.1 17:57:36 10° SSW 18:02:54 76° WNW 18:05:27 32° NNE
Cosmos 2263 Rocket 4.4 18:01:37 10° NNW 18:03:14 11° N 18:04:12 11° NNE
Cosmos 2034 Rocket 3.9 17:58:39 10° S 18:04:52 83° E 18:11:11 10° NNE
ISS -2.4 18:01:40 10° WSW 18:03:52 37° WSW 18:03:52 37° WSW
Cosmos 1812 4.5 18:03:31 10° WSW 18:05:50 21° WNW 18:06:21 20° NW
Cosmos 676 Rocket 3.9 18:00:40 10° SSW 18:05:58 77° ESE 18:06:43 64° NE
SKYMED 2 4.0 18:03:52 23° N 18:06:27 60° WNW 18:10:44 10° SSW
Okean 1 Rocket 3.0 18:03:45 10° SSW 18:08:09 80° WNW 18:08:25 76° NNW
Cosmos 1656 Rocket 3.8 18:03:14 10° S 18:07:59 53° SE 18:07:59 53° SE
Cosmos 220 Rocket 4.3 18:07:47 10° NNW 18:11:16 60° NW 18:11:16 60° NW
USA 281 3.1 18:11:29 53° ESE 18:12:51 64° NE 18:19:23 10° NNW
Sich 1 Rocket 3.8 18:09:24 10° SSW 18:13:56 71° WNW 18:14:56 52° NNW
COSMOS 2406 3.8 18:08:32 10° NW 18:14:05 56° WSW 18:19:01 13° S
Cosmos 1954 Rocket 4.1 18:10:04 10° SSW 18:15:20 74° WNW 18:16:53 46° N
Cosmos 1092 Rocket 3.9 18:09:27 10° N 18:15:46 88° E 18:21:58 10° S
Cosmos 1932 4.4 18:09:48 10° SSW 18:16:04 62° SE 18:16:22 61° ESE
Cosmos 2026 Rocket 4.0 18:14:39 10° NNW 18:20:45 78° W 18:26:53 10° S
SJ 16-02 2.0 18:20:19 10° SW 18:24:29 52° WNW 18:24:29 52° WNW
YAOGAN 1 4.0 18:21:03 10° SSW 18:24:58 36° W 18:28:55 10° NNW
Cosmos 44 Rocket 3.9 18:21:02 10° WSW 18:25:45 49° NW 18:26:14 48° NNW
Cosmos 2344 4.0 18:24:39 10° NW 18:32:28 73° SW 18:38:34 27° SSE
Cosmos 2297 Rocket 4.1 18:30:52 10° NNW 18:33:09 17° N 18:33:09 17° N
Meteor 2-3 Rocket 4.4 18:31:07 10° NNW 18:36:39 52° W 18:42:05 10° S
Cosmos 371 Rocket 4.4 18:46:41 10° SW 18:50:35 42° W 18:50:35 42° W
CZ-4C R/B 3.7 18:47:11 10° NW 18:51:49 30° N 18:51:49 30° N
Resurs 01 Rocket 3.9 19:07:36 21° NW 19:07:36 21° NW 19:09:21 10° NNW
Cosmos 1943 Rocket 4.0 19:11:13 10° W 19:15:41 24° NW 19:16:48 22° NNW
Cosmos 2278 Rocket 4.2 19:25:24 10° W 19:29:43 22° NNW 19:30:23 21° NNW
ATLAS 2AS CENTAUR R/B 3.4 19:24:04 10° NW 19:29:41 48° W 19:29:41 48° W
